User: anonymous   Login
Location: Marseilles
(40.7010°N, 83.3930°W)
Time: 09:35:23
(UTC-05:00)
Language:

Cosmos 1459 Rocket - Orbit

View from above orbital plane
View from above orbital plane
View from above satellite
View from above satellite

Ground track
Ground track

The orbit data is extracted from the following two-line orbital elements,

1 14059U 83042B   16344.07728859  .00000099  00000-0  81394-4 0  9997
2 14059  82.9718 203.0328 0043876  80.9109  82.6255 13.78568273689561
Epoch (UTC): 09 December 2016 01:51:17
Eccentricity: 0.0043876
inclination: 82.9718°
perigee height: 937 km
apogee height: 1001 km
right ascension of ascending node: 203.0328°
argument of perigee: 80.9109°
revolutions per day: 13.78568273
mean anomaly at epoch: 82.6255°
orbit number at epoch: 68956

The dashed part of the orbit path shows where the satellite is in the earth's shadow,  

DLR